Lamoni, IA

12:12 PM CDT on July 22, 2017 (GMT -0500)
Lamoni Municipal

Weather History for KLWD - July, 2014

Change the Weather History Date:

Friday, July 11, 2014

  Actual Average Record
Temperature  
Mean Temperature 73 °F 75 °F  
Max Temperature 82 °F 85 °F 98 °F (1980)
Min Temperature 64 °F 65 °F 54 °F (1999)
Degree Days  
Heating Degree Days 0 0  
Month to date heating degree days 4 0  
Since 1 June heating degree days 9 19  
Since 1 July heating degree days 4 0  
Cooling Degree Days 8 10  
Month to date cooling degree days 68 108  
Year to date cooling degree days 399 355  
Since 1 June cooling degree days 287 301  
Growing Degree Days 22 (Base 50)    
Moisture  
Dew Point 67 °F    
Average Humidity 84    
Maximum Humidity 94    
Minimum Humidity 74    
Precipitation  
Precipitation 0.13 in 0.17 in 2.37 in (1989)
Month to date precipitation 1.93 1.66  
Sea Level Pressure  
Sea Level Pressure 30.03 in    
Wind  
Wind Speed 7 mph (SSE)    
Max Wind Speed 15 mph    
Max Gust Speed 21 mph    
Visibility 10 miles    
Events Rain , Thunderstorm    
T = Trace of Precipitation, MM = Missing Value Source: NWS Daily Summary

Daily Weather History Graph

Daily Weather History Graph

Search for Another Location

Airport or City:

Trip Planner

Search our weather history database for the weather conditions in past years. The results will help you decide how hot, cold, wet, or windy it might be!

Date:

Astronomy

Jul. 11, 2014 Rise Set
Actual Time 5:54 AM CDT 8:47 PM CDT
Civil Twilight 5:21 AM CDT 9:19 PM CDT
Nautical Twilight 4:40 AM CDT 10:00 PM CDT
Astronomical Twilight 3:53 AM CDT 10:48 PM CDT
Moon 7:57 PM CDT (7/11) 5:07 AM CDT (7/11)
Length of Visible Light 15h 57m
Length of Day
14h 52m
Waxing Gibbous, 99% of the Moon is Illuminated
Jul 11
Waxing Gibbous
Jul 12
Full
Jul 18
Last Quarter
Jul 26
New
Aug 3
First Quarter

Hourly Weather History & Observations

Time (CDT) Temp. Heat Index Dew Point Humidity Pressure Visibility Wind Dir Wind Speed Gust Speed Precip Events Conditions
12:53 AM 66.9 °F - 59.0 °F 76% 30.06 in 10.0 mi SSE 9.2 mph - N/A   Clear
1:53 AM 66.0 °F - 59.0 °F 78% 30.06 in 10.0 mi SSE 4.6 mph - N/A   Clear
2:53 AM 64.9 °F - 59.0 °F 81% 30.05 in 10.0 mi SSE 8.1 mph - N/A   Clear
3:53 AM 64.0 °F - 59.0 °F 84% 30.04 in 10.0 mi SSE 9.2 mph - N/A   Clear
4:53 AM 64.0 °F - 59.0 °F 84% 30.06 in 10.0 mi SE 6.9 mph - N/A   Clear
5:53 AM 64.0 °F - 60.1 °F 87% 30.05 in 10.0 mi SSE 8.1 mph - N/A   Clear
6:53 AM 64.9 °F - 61.0 °F 87% 30.05 in 10.0 mi SSE 9.2 mph - N/A   Clear
7:51 AM 69.8 °F - 64.4 °F 83% 30.07 in 10.0 mi SSE 10.4 mph 18.4 mph N/A Thunderstorm Partly Cloudy
7:53 AM 69.1 °F - 64.0 °F 84% 30.05 in 10.0 mi SSE 9.2 mph 18.4 mph N/A Thunderstorm Scattered Clouds
8:20 AM 68.0 °F - 64.0 °F 87% 30.10 in 10.0 mi Calm Calm - 0.01 in Thunderstorm Thunderstorm
8:38 AM 68.0 °F - 64.0 °F 87% 30.09 in 10.0 mi SE 6.9 mph - 0.01 in Thunderstorm Mostly Cloudy
8:53 AM 68.0 °F - 64.0 °F 87% 30.06 in 10.0 mi SE 9.2 mph - 0.01 in Thunderstorm Scattered Clouds
9:01 AM 68.0 °F - 64.0 °F 87% 30.07 in 8.0 mi SSE 11.5 mph - 0.00 in Rain , Thunderstorm Light Thunderstorms and Rain
9:10 AM 68.0 °F - 64.9 °F 90% 30.06 in 2.5 mi SSE 10.4 mph - 0.08 in Rain Heavy Rain
9:15 AM 68.0 °F - 64.9 °F 90% 30.07 in 4.0 mi South 15.0 mph - 0.10 in Rain , Thunderstorm Light Thunderstorms and Rain
9:53 AM 68.0 °F - 66.0 °F 93% 30.04 in 9.0 mi SE 8.1 mph - 0.11 in Rain Light Rain
10:53 AM 71.1 °F - 66.9 °F 87% 30.06 in 10.0 mi SE 5.8 mph - 0.00 in   Clear
11:53 AM 75.0 °F - 68.0 °F 79% 30.03 in 10.0 mi SSE 12.7 mph - N/A   Clear
12:53 PM 75.9 °F - 69.1 °F 79% 30.01 in 10.0 mi SSE 6.9 mph 21.9 mph N/A   Partly Cloudy
1:53 PM 79.0 °F - 70.0 °F 74% 30.00 in 10.0 mi South 15.0 mph - N/A   Partly Cloudy
2:38 PM 80.1 °F 83.6 °F 71.1 °F 74% 30.03 in 10.0 mi SSE 6.9 mph 17.3 mph N/A   Mostly Cloudy
2:53 PM 80.1 °F 83.6 °F 71.1 °F 74% 30.00 in 10.0 mi South 8.1 mph - N/A   Mostly Cloudy
3:36 PM 80.1 °F 83.6 °F 71.1 °F 74% 30.02 in 10.0 mi South 11.5 mph - N/A   Mostly Cloudy
3:48 PM 80.6 °F 84.6 °F 71.6 °F 74% 30.02 in 10.0 mi South 10.4 mph - N/A   Scattered Clouds
3:53 PM 81.0 °F 84.9 °F 71.1 °F 72% 30.00 in 10.0 mi South 10.4 mph - N/A   Scattered Clouds
4:36 PM 80.1 °F 83.8 °F 72.0 °F 76% 30.01 in 10.0 mi South 8.1 mph - N/A   Mostly Cloudy
4:48 PM 80.6 °F 84.6 °F 71.6 °F 74% 30.01 in 10.0 mi South 5.8 mph - N/A   Scattered Clouds
4:53 PM 80.1 °F 83.8 °F 72.0 °F 76% 29.99 in 10.0 mi South 9.2 mph - N/A   Partly Cloudy
5:53 PM 80.1 °F 83.8 °F 72.0 °F 76% 29.99 in 10.0 mi South 4.6 mph - 0.01 in   Clear
6:53 PM 80.1 °F 84.2 °F 73.0 °F 79% 29.98 in 10.0 mi SSE 4.6 mph - N/A   Clear
7:53 PM 79.0 °F - 73.9 °F 84% 29.99 in 10.0 mi South 3.5 mph - N/A   Clear
8:53 PM 77.0 °F - 73.9 °F 90% 29.99 in 10.0 mi NE 3.5 mph - N/A   Clear
9:53 PM 77.0 °F - 73.0 °F 88% 30.01 in 10.0 mi East 3.5 mph - N/A   Clear
10:53 PM 75.9 °F - 73.0 °F 91% 30.02 in 10.0 mi ESE 4.6 mph - N/A   Clear
11:53 PM 75.0 °F - 73.0 °F 94% 30.02 in 10.0 mi East 5.8 mph - N/A   Clear